Regional Weather Roundup
Issued by NWS Albany, NY

Home | Current Version | Previous Version | Text Only | Print | Product List | Glossary On
Versions: 1 2 3 4 5 6 7 8 9 10 11 12 13 14 15 16 17 18 19 20 21 22 23 24 25 26 27 28 29 30 31 32 33 34 35 36 37 38 39 40 41 42 43 44 45 46 47 48 49 50
715
ASUS41 KALY 180610
RWRALY

NEW YORK STATE HOURLY WEATHER ROUNDUP
NATIONAL WEATHER SERVICE ALBANY NY
100 AM EST MON DEC 18 2017

NOTE: "FAIR" INDICATES FEW OR NO CLOUDS BELOW 12,000 FEET WITH NO
SIGNIFICANT WEATHER AND/OR NO OBSTRUCTIONS TO VISIBILITY.

NYZ032-033-038>043-046>054-057>066-NYZ062>081-082-084-180700-
EAST


CITY           SKY/WX    TMP DP  RH WIND       PRES   REMARKS
ALBANY         FLURRIES  19   9  65 N6        30.21S WCI  11
GLENS FALLS    CLOUDY     8   5  87 CALM      30.21S
POUGHKEEPSIE   CLOUDY    27  16  63 CALM      30.20S
NEWBURGH       CLOUDY    27  19  74 CALM      30.19F
MONTGOMERY     CLOUDY    27  17  66 CALM      30.17F
WHITE PLAINS   CLOUDY    30  18  60 CALM      30.17F
ISLIP          CLOUDY    32  22  66 NE5       30.19F WCI  27
NEW YORK CITY  CLOUDY    35  24  64 E7        30.19F WCI  29
CENTRAL PARK   CLOUDY    35  24  64 E6        30.21F WCI  30
$$

NYZ005>009-017-018-044>046-055-056-180700-
CENTRAL


CITY           SKY/WX    TMP DP  RH WIND       PRES   REMARKS
FULTON         CLOUDY    22  16  78 VRB5      30.09F WCI  16
SYRACUSE       FLURRIES  21  17  84 E6        30.09F WCI  13
ROME           LGT SNOW  20  16  84 E6        30.15S FOG     WCI  12
ELMIRA         CLOUDY    27  23  85 CALM      30.07F
BINGHAMTON     CLOUDY    26  21  81 S5        30.03F WCI  20
MONTICELLO     CLOUDY    23  19  85 CALM      30.12F
$$

NYZ026>034-041>043-087-180700-
NORTH


CITY           SKY/WX    TMP DP  RH WIND       PRES   REMARKS
WATERTOWN      CLOUDY    12   7  80 NE3       30.11F
FORT DRUM      NOT AVBL
OGDENSBURG     FAIR       7   4  87 NE3       30.15F
MASSENA        CLOUDY     8   4  83 E3        30.18F
SARANAC LAKE   CLOUDY     5   3  91 CALM      30.05F
PLATTSBURGH    CLOUDY    13   7  77 CALM      30.20F
$$

NYZ001>004-010>016-019>021-085-180700-
WEST


CITY           SKY/WX    TMP DP  RH WIND       PRES   REMARKS
NIAGARA FALLS  CLOUDY    26  18  71 CALM      30.03F
BUFFALO        CLOUDY    25  21  85 CALM      30.03F
DUNKIRK        CLOUDY    36  32  85 S10       30.04F WCI  28
JAMESTOWN      MIX PCPN  33  32  96 SW9       30.02F WCI  25
WELLSVILLE     CLOUDY    36  29  75 SW9       30.02S WCI  29
ROCHESTER      CLOUDY    25  21  85 SE3       30.06F
PENN YAN       PTCLDY    29  23  78 SW6       30.05F WCI  23
$$

             KEY
       WCI = WIND CHILL INDEX
       VSB = VISIBILITY
       HX  = HEAT INDEX
$$




USA.gov is the U.S. government's official web portal to all federal, state and local government web resources and services.